Racecast

MHSAA Regional 5-1

Hudson Mills Metropark - OFFICIAL · 5000m · Girls · Compiled · MI

69 runners from 1 division

These divisions were run separately. This is how their times compare, not how they finished — the places and scores below were never contested.

View full meet →

Team scores

Place Team Points 12345 67
1 Saline (MI) 30 1 3 7 9 10 12 17
2 Temperance Bedford (MI) 65 2 5 13 19 26 27 34
3 Ann Arbor Huron (MI) 72 4 6 18 20 24 25 29
4 Dearborn (MI) 76 8 11 14 21 22 31 38
5 Monroe (MI) 112 15 16 23 28 30
6 Wyandotte Roosevelt (MI) 186 32 35 37 39 43 44 45
7 Ypsilanti Lincoln (MI) 192 33 36 40 41 42 46 47

Not scored, fewer than five finishers: Dearborn Edsel Ford (4), Woodhaven Brownstown (4), Adrian (4), Ann Arbor Pioneer (3), Belleville (3), Dearborn Fordson (3), Southgate Anderson (1)

Results

Place Athlete Grade School Time Rating Points Actual race
1 Eileen Creutz 10 Saline (MI) 1 18:44.0 134.0 1 1
2 Katelyn Johnston 10 Temperance Bedford (MI) 1 19:16.0 130.3 2 2
3 Joanne Gabl 10 Saline (MI) 2 19:26.0 129.2 3 3
4 Asli Bashir 10 Ann Arbor Huron (MI) 1 19:33.0 128.4 4 4
5 Katie Nicholson 11 Temperance Bedford (MI) 2 19:35.0 128.2 5 5
6 Natasha Luppov 12 Ann Arbor Huron (MI) 2 19:50.0 126.6 6 6
7 Meghan Moore 12 Saline (MI) 3 19:52.0 126.3 7 7
8 Alison Springer-Wilson 10 Dearborn (MI) 1 19:53.0 126.2 8 8
9 Shannon Merriman 11 Saline (MI) 4 19:59.0 125.6 9 9
10 Carrie Kraeger 12 Saline (MI) 5 19:59.0 125.6 10 10
11 Samantha Mifsud 10 Dearborn (MI) 2 20:00.0 125.5 11 11
12 Jamie Colunga 12 Saline (MI) 6 20:00.0 125.5 12 12
13 Julianne Hanna 13 Temperance Bedford (MI) 3 20:03.0 125.2 13 13
14 Kristie Savage 11 Dearborn (MI) 3 20:04.0 125.1 14 14
15 Kristie Ferrans 9 Monroe (CA) 1 20:10.0 124.5 15 15
16 Emily Van wasshenova 10 Monroe (CA) 2 20:13.0 124.2 16 16
17 Jessica Chase 12 Saline (MI) 7 20:16.0 123.8 17 17
18 Danielle Antonuk 12 Ann Arbor Pioneer (MI) 1 20:19.0 123.6 18
19 Hannah Smith 12 Ann Arbor Pioneer (MI) 2 20:22.0 123.2 19
20 Anna McConnell 10 Ann Arbor Huron (MI) 3 20:28.0 122.6 18 20
21 Kelsey Miller 10 Temperance Bedford (MI) 4 20:33.0 122.1 19 21
22 Allison Oatley 10 Ann Arbor Huron (MI) 4 20:35.0 121.9 20 22
23 Ashley Hoffman 12 Dearborn (MI) 4 20:35.0 121.9 21 23
24 Chelsae Hoffman 13 Dearborn (MI) 5 20:45.0 121.0 22 24
25 Jennifer Connell 11 Dearborn Edsel Ford (MI) 1 20:48.0 120.7 25
26 Theresa Kolonich 11 Woodhaven Brownstown (MI) 1 20:50.0 120.5 26
27 Lauren Campbell 13 Monroe (CA) 3 20:51.0 120.4 23 27
28 Anna Williams 9 Ann Arbor Huron (MI) 5 21:00.0 119.5 24 28
29 Kelly McGuckin 10 Ann Arbor Pioneer (MI) 3 21:02.0 119.3 29
30 Britta Wunderlich 11 Ann Arbor Huron (MI) 6 21:07.0 118.9 25 30
31 Kelsey Webb 11 Woodhaven Brownstown (MI) 2 21:15.0 118.1 31
32 Amber Redmond 9 Temperance Bedford (MI) 5 21:16.0 118.0 26 32
33 Sandra Koehler 12 Dearborn Edsel Ford (MI) 2 21:20.0 117.7 33
34 Tiffany Chudzinski 13 Belleville (MI) 1 21:30.0 116.8 34
35 Lindsay Cessna 9 Temperance Bedford (MI) 6 21:34.0 116.4 27 35
36 Rebbeca Nixon 13 Dearborn Edsel Ford (MI) 3 21:40.0 115.8 36
37 Sarah Gayde 13 Monroe (CA) 4 21:42.0 115.7 28 37
38 Rachel Christensen 11 Ann Arbor Huron (MI) 7 21:45.0 115.4 29 38
39 Robyn Benson 13 Monroe (CA) 5 21:48.0 115.1 30 39
40 Jessica Sipperley 13 Dearborn (MI) 6 21:53.0 114.7 31 40
41 Stephanie Berras 12 Woodhaven Brownstown (MI) 3 21:58.0 114.3 41
42 Katie Yoskuwatz - Wyandotte Roosevelt (MI) 1 22:01.5 114.0 32 42
43 Chelsey Cebulski 13 Adrian (MI) 1 22:05.0 113.7 43
44 Ashton Bullock 13 Ypsilanti Lincoln (MI) 1 22:07.0 113.5 33 44
45 Amanda Laney 13 Temperance Bedford (MI) 7 22:08.0 113.4 34 45
46 Emily Johnson 13 Adrian (MI) 2 22:20.0 112.4 46
47 Ann Germaine Kreger 12 Wyandotte Roosevelt (MI) 2 22:20.7 112.3 35 47
48 Brittanie Maxwell 13 Woodhaven Brownstown (MI) 4 22:22.0 112.2 48
49 Anna Balamucki 11 Dearborn Edsel Ford (MI) 4 22:23.0 112.1 49
50 Samantha Buckberry 13 Ypsilanti Lincoln (MI) 2 22:50.0 109.9 36 50
51 Courtney Sly 10 Wyandotte Roosevelt (MI) 3 22:57.8 109.3 37 51
52 Adrienne Young 13 Dearborn (MI) 7 23:09.0 108.4 38 52
53 Samia Srour 13 Dearborn Fordson (MI) 1 23:15.0 108.0 53
54 Kat Hotton 11 Belleville (MI) 2 23:20.0 107.6 54
55 Meghan Peters 11 Wyandotte Roosevelt (MI) 4 23:25.0 107.2 39 55
56 Eve Lasswell 13 Ypsilanti Lincoln (MI) 3 23:34.0 106.5 40 56
57 Ashley Timoszyk 13 Belleville (MI) 3 23:35.0 106.4 57
58 Erin Shaver 13 Ypsilanti Lincoln (MI) 4 23:39.0 106.1 41 58
59 Sarah Winkle 13 Ypsilanti Lincoln (MI) 5 24:09.0 103.9 42 59
60 Stacey Bem 11 Wyandotte Roosevelt (MI) 5 24:33.0 43 60
61 Heather Guenther 12 Southgate Anderson (MI) 1 24:59.0 100.5 61
62 Zahraa Zalzala 13 Dearborn Fordson (MI) 2 25:28.0 98.6 62
63 Casey Amori 12 Wyandotte Roosevelt (MI) 6 25:44.8 97.5 44 63
64 Jessica Blevins 10 Wyandotte Roosevelt (MI) 7 25:45.0 97.5 45 64
65 Abby Vonck 13 Ypsilanti Lincoln (MI) 6 25:46.0 97.4 46 65
66 Abeer Berry 13 Dearborn Fordson (MI) 3 25:51.0 97.1 66
67 Elly Schmitt 13 Ypsilanti Lincoln (MI) 7 26:59.0 93.0 47 67
68 Drew Wakefield 11 Adrian (MI) 3 27:51.0 90.1 68
69 KATHERINE KEY 13 Adrian (MI) 4 29:44.0 84.4 69